• In India
  • List of Countries
  • For 7 days
  • Water Temperature
  • Satellite Maps
  • Weather Map
  • Weather Widgets
  • user-avatar
    Login

    Hourly Weather Peczkow

    Today, 19 September, Wednesday

    Time Temperature Precipitation Wind Pressure Humidity
    00:00 +20°C° 0 mm 4 mps 750 mmHg 62%
    01:00 +20°C° 0 mm 4 mps 750 mmHg 63%
    02:00 +19°C° 0 mm 3 mps 750 mmHg 64%
    03:00 +19°C° 0 mm 3 mps 750 mmHg 65%
    04:00 +19°C° 0 mm 3 mps 751 mmHg 66%
    05:00 +19°C° 0 mm 3 mps 751 mmHg 66%
    06:00 +19°C° 0 mm 2 mps 751 mmHg 67%
    07:00 +19°C° 0 mm 2 mps 751 mmHg 67%
    08:00 +21°C° 0 mm 2 mps 751 mmHg 62%
    09:00 +24°C° 0 mm 2 mps 752 mmHg 57%
    10:00 +26°C° 0 mm 2 mps 752 mmHg 52%
    11:00 +27°C° 0 mm 2 mps 752 mmHg 50%
    12:00 +28°C° 0 mm 2 mps 752 mmHg 48%
    13:00 +29°C° 0 mm 2 mps 752 mmHg 46%
    14:00 +29°C° 0 mm 2 mps 751 mmHg 46%
    15:00 +29°C° 0 mm 1 mps 751 mmHg 47%
    16:00 +29°C° 0 mm 1 mps 751 mmHg 47%
    17:00 +27°C° 0 mm 1 mps 751 mmHg 53%
    18:00 +25°C° 0 mm 2 mps 751 mmHg 59%
    19:00 +23°C° 0 mm 2 mps 752 mmHg 64%
    20:00 +23°C° 0 mm 2 mps 752 mmHg 66%
    21:00 +21°C° 0 mm 2 mps 752 mmHg 69%
    22:00 +20°C° 0 mm 2 mps 752 mmHg 71%
    23:00 +20°C° 0 mm 2 mps 752 mmHg 72%

    Tomorrow, 20 September, Thursday

    Time Temperature Precipitation Wind Pressure Humidity
    00:00 +20°C° 0 mm 2 mps 752 mmHg 73%
    01:00 +19°C° 0 mm 2 mps 752 mmHg 74%
    02:00 +19°C° 0 mm 2 mps 751 mmHg 76%
    03:00 +19°C° 0 mm 2 mps 751 mmHg 77%
    04:00 +19°C° 0 mm 2 mps 751 mmHg 78%
    05:00 +19°C° 0 mm 2 mps 752 mmHg 77%
    06:00 +20°C° 0 mm 2 mps 752 mmHg 76%
    07:00 +20°C° 0 mm 2 mps 752 mmHg 75%
    08:00 +23°C° 0 mm 2 mps 752 mmHg 69%
    09:00 +25°C° 0 mm 2 mps 752 mmHg 62%
    10:00 +27°C° 0 mm 2 mps 752 mmHg 55%
    11:00 +28°C° 0 mm 2 mps 752 mmHg 52%
    12:00 +29°C° 0 mm 2 mps 752 mmHg 48%
    13:00 +30°C° 0 mm 2 mps 751 mmHg 45%
    14:00 +30°C° 0 mm 2 mps 751 mmHg 45%
    15:00 +29°C° 0 mm 2 mps 751 mmHg 46%
    16:00 +29°C° 0 mm 2 mps 751 mmHg 46%
    17:00 +28°C° 0 mm 1 mps 751 mmHg 51%
    18:00 +26°C° 0 mm 1 mps 751 mmHg 57%
    19:00 +24°C° 0 mm 1 mps 750 mmHg 62%
    20:00 +23°C° 0 mm 1 mps 750 mmHg 64%
    21:00 +23°C° 0 mm 1 mps 750 mmHg 66%
    22:00 +21°C° 0 mm 2 mps 750 mmHg 67%
    23:00 +21°C° 0 mm 2 mps 750 mmHg 69%

    Day after tomorrow, 21 September, Friday

    Time Temperature Precipitation Wind Pressure Humidity
    00:00 +21°C° 0 mm 2 mps 750 mmHg 71%
    01:00 +20°C° 0 mm 2 mps 750 mmHg 72%
    02:00 +20°C° 0 mm 2 mps 749 mmHg 73%
    03:00 +20°C° 0 mm 2 mps 749 mmHg 74%
    04:00 +19°C° 0 mm 2 mps 749 mmHg 75%
    05:00 +20°C° 0 mm 3 mps 748 mmHg 73%
    06:00 +20°C° 0 mm 3 mps 748 mmHg 71%
    07:00 +20°C° 0 mm 3 mps 748 mmHg 69%
    08:00 +22°C° 0 mm 4 mps 748 mmHg 62%
    09:00 +25°C° 0 mm 5 mps 747 mmHg 54%
    10:00 +27°C° 0 mm 6 mps 747 mmHg 46%
    11:00 +28°C° 0 mm 6 mps 746 mmHg 43%
    12:00 +29°C° 0 mm 6 mps 746 mmHg 40%
    13:00 +30°C° 0 mm 7 mps 745 mmHg 37%
    14:00 +30°C° 0 mm 6 mps 745 mmHg 39%
    15:00 +29°C° 0 mm 6 mps 744 mmHg 41%
    16:00 +29°C° 0 mm 6 mps 743 mmHg 43%
    17:00 +27°C° 0 mm 6 mps 743 mmHg 45%
    18:00 +26°C° 0 mm 5 mps 742 mmHg 48%
    19:00 +25°C° 0 mm 5 mps 742 mmHg 51%
    20:00 +24°C° 0 mm 6 mps 742 mmHg 51%
    21:00 +23°C° 0 mm 6 mps 742 mmHg 51%
    22:00 +23°C° 0 mm 7 mps 743 mmHg 52%
    23:00 +20°C° 0.8 mm 8 mps 744 mmHg 61%

    22 September, Saturday

    Time Temperature Precipitation Wind Pressure Humidity
    00:00 +16°C° 0.8 mm 8 mps 745 mmHg 71%
    01:00 +12°C° 0.8 mm 9 mps 746 mmHg 80%
    02:00 +11°C° 1 mm 8 mps 747 mmHg 79%
    03:00 +11°C° 1 mm 7 mps 748 mmHg 77%
    04:00 +11°C° 1 mm 6 mps 749 mmHg 76%
    05:00 +10°C° 0 mm 5 mps 750 mmHg 74%
    06:00 +10°C° 0 mm 5 mps 750 mmHg 72%
    07:00 +10°C° 0 mm 5 mps 751 mmHg 70%
    08:00 +11°C° 0 mm 6 mps 751 mmHg 66%
    09:00 +13°C° 0 mm 6 mps 751 mmHg 63%
    10:00 +12°C° 0 mm 7 mps 751 mmHg 59%
    11:00 +14°C° 0 mm 7 mps 751 mmHg 55%
    12:00 +15°C° 0 mm 7 mps 751 mmHg 52%
    13:00 +16°C° 0 mm 7 mps 751 mmHg 48%
    14:00 +16°C° 0 mm 6 mps 751 mmHg 47%
    15:00 +16°C° 0 mm 6 mps 751 mmHg 47%
    16:00 +16°C° 0 mm 6 mps 751 mmHg 46%
    17:00 +15°C° 0 mm 5 mps 751 mmHg 50%
    18:00 +13°C° 0 mm 4 mps 752 mmHg 54%
    19:00 +12°C° 0 mm 3 mps 752 mmHg 59%
    20:00 +12°C° 0 mm 3 mps 752 mmHg 60%
    21:00 +11°C° 0 mm 3 mps 752 mmHg 62%
    22:00 +11°C° 0 mm 3 mps 753 mmHg 64%
    23:00 +10°C° 0 mm 3 mps 752 mmHg 66%

    23 September, Sunday

    Time Temperature Precipitation Wind Pressure Humidity
    00:00 +10°C° 0 mm 3 mps 752 mmHg 68%
    01:00 +10°C° 0 mm 3 mps 752 mmHg 69%
    02:00 +9°C° 0 mm 3 mps 752 mmHg 71%
    03:00 +9°C° 0 mm 3 mps 752 mmHg 73%
    04:00 +8°C° 0 mm 3 mps 752 mmHg 74%
    05:00 +9°C° 0 mm 3 mps 752 mmHg 72%
    06:00 +9°C° 0 mm 3 mps 752 mmHg 70%
    07:00 +10°C° 0 mm 3 mps 752 mmHg 68%
    08:00 +11°C° 0 mm 3 mps 751 mmHg 62%
    09:00 +13°C° 0 mm 4 mps 751 mmHg 56%
    10:00 +15°C° 0 mm 4 mps 751 mmHg 49%
    11:00 +17°C° 0 mm 4 mps 750 mmHg 47%
    12:00 +16°C° 0 mm 5 mps 748 mmHg 44%
    13:00 +17°C° 0 mm 5 mps 747 mmHg 42%
    14:00 +16°C° 0.5 mm 5 mps 746 mmHg 50%
    15:00 +15°C° 0.5 mm 4 mps 746 mmHg 59%
    16:00 +13°C° 0.5 mm 4 mps 745 mmHg 68%
    17:00 +13°C° 0.7 mm 5 mps 744 mmHg 69%
    18:00 +13°C° 0.7 mm 5 mps 743 mmHg 71%
    19:00 +13°C° 0.7 mm 6 mps 742 mmHg 73%
    20:00 +13°C° 0.5 mm 6 mps 740 mmHg 74%
    21:00 +13°C° 0.5 mm 6 mps 738 mmHg 75%
    22:00 +13°C° 0.5 mm 6 mps 737 mmHg 76%
    23:00 +12°C° 2.8 mm 7 mps 737 mmHg 77%

    24 September, Monday

    Time Temperature Precipitation Wind Pressure Humidity
    00:00 +12°C° 2.8 mm 8 mps 736 mmHg 79%
    01:00 +12°C° 2.8 mm 8 mps 736 mmHg 81%
    02:00 +12°C° 0.8 mm 7 mps 736 mmHg 80%
    03:00 +11°C° 0.8 mm 7 mps 735 mmHg 79%
    04:00 +11°C° 0.8 mm 6 mps 735 mmHg 78%
    05:00 +11°C° 0.1 mm 7 mps 734 mmHg 77%
    06:00 +10°C° 0.1 mm 7 mps 734 mmHg 75%
    07:00 +10°C° 0.1 mm 8 mps 733 mmHg 74%
    08:00 +11°C° 0.1 mm 8 mps 733 mmHg 72%
    09:00 +12°C° 0.1 mm 9 mps 733 mmHg 71%
    10:00 +13°C° 0.1 mm 9 mps 733 mmHg 69%
    11:00 +13°C° 0.2 mm 9 mps 734 mmHg 70%
    12:00 +12°C° 0.2 mm 8 mps 734 mmHg 71%
    13:00 +12°C° 0.2 mm 8 mps 735 mmHg 72%
    14:00 +12°C° 0.3 mm 8 mps 735 mmHg 74%
    15:00 +11°C° 0.3 mm 8 mps 736 mmHg 76%
    16:00 +10°C° 0.3 mm 9 mps 736 mmHg 77%
    17:00 +10°C° 0.1 mm 8 mps 737 mmHg 78%
    18:00 +9°C° 0.1 mm 8 mps 737 mmHg 78%
    19:00 +9°C° 0.1 mm 8 mps 738 mmHg 79%
    20:00 +9°C° 0.3 mm 8 mps 738 mmHg 81%
    21:00 +9°C° 0.3 mm 8 mps 738 mmHg 83%
    22:00 +9°C° 0.3 mm 8 mps 739 mmHg 86%
    23:00 +9°C° 1.1 mm 8 mps 739 mmHg 86%
    Show more